Terminal Aerodrome Forecast
Issued by NWS Jackson, MS

Home | Current Version | Previous Version | Text Only | Print | Product List | Glossary On
Versions: 1 2 3 4 5 6 7 8 9 10 11 12 13 14 15
000
FTUS44 KJAN 311700
TAFGLH
TAF
KGLH 311737Z 3118/0118 00000KT P6SM FEW070 OVC090
     FM312000 05007KT P6SM VCSH BKN030 OVC050
     FM010100 06003KT P6SM SCT020 OVC040
     FM011100 05003KT 4SM BR OVC035
     FM011400 02005KT P6SM OVC050=

USA.gov is the U.S. government's official web portal to all federal, state and local government web resources and services.